Location: Rotheul
(50.2849°N, 11.2349°E)
Time: 12:07:35
(UTC+02:00)

ISS - Pass Details

Date: 23 May 2018
Orbit: 402 x 407 km, 51.6° (Epoch: 26 May)

Event Time Altitude Azimuth Distance (km) Brightness Sun altitude
Rises 00:35:31 0° 271° (W) 2,318 0.1 -18.7°
Reaches altitude 10° 00:37:36 10° 274° (W) 1,458 -0.9 -18.8°
Maximum altitude 00:40:51 67° 358° (N) 442 -3.5 -18.9°
Drops below altitude 10° 00:44:07 10° 82° (E) 1,458 -1.0 -18.9°
Sets 00:46:12 0° 85° (E) 2,317 0.0 -19.0°
